Weather History for Seward, AK

Change the Weather History Date:

Thursday, August 14, 2014

  Actual Average Record
Temperature  
Mean Temperature 54 °F -  
Max Temperature 57 °F 62 °F 78 °F (1974)
Min Temperature 51 °F 49 °F 39 °F (1969)
Degree Days  
Heating Degree Days 11    
Growing Degree Days 4 (Base 50)    
Moisture  
Dew Point 53 °F    
Average Humidity 94    
Maximum Humidity 97    
Minimum Humidity 86    
Precipitation  
Precipitation 0.63 in - - ()
Sea Level Pressure  
Sea Level Pressure 29.61 in    
Wind  
Wind Speed 3 mph (South)    
Max Wind Speed 16 mph    
Max Gust Speed 20 mph    
Visibility 5 miles    
Events Rain    
Averages and records for this station are not official NWS values.
T = Trace of Precipitation, MM = Missing Value Source: NWS Daily Summary

Daily Weather History Graph

Daily Weather History Graph

Search for Another Location

Airport:

Trip Planner

Search our weather history database for the weather conditions in past years. The results will help you decide how hot, cold, wet, or windy it might be!

Date:

Astronomy

Aug. 14, 2014 Rise Set
Actual Time 6:09 AM AKDT 9:53 PM AKDT
Civil Twilight 5:17 AM AKDT 10:44 PM AKDT
Nautical Twilight 3:58 AM AKDT 12:01 AM AKDT
Astronomical Twilight 2:34 AM AKDT 1:29 AM AKDT
Moon 10:50 PM AKDT (8/14) 12:24 PM AKDT (8/14)
Length of Visible Light 17h 27m
Length of Day
15h 43m
Waning Gibbous, 78% of the Moon is Illuminated
Aug 14
Waning Gibbous
Aug 17
Last Quarter
Aug 25
New
Sep 2
First Quarter
Sep 8
Full

Hourly Weather History & Observations

Time (AKDT) Temp. Dew Point Humidity Pressure Visibility Wind Dir Wind Speed Gust Speed Precip Events Conditions
12:53 AM 54.0 °F 52.0 °F 93% 29.70 in 10.0 mi Calm Calm - N/A   Overcast
1:53 AM 53.1 °F 51.1 °F 93% 29.69 in 10.0 mi Calm Calm - N/A   Overcast
2:50 AM 53.6 °F 51.8 °F 94% 29.67 in 10.0 mi Calm Calm - N/A   Overcast
2:53 AM 53.1 °F 52.0 °F 96% 29.67 in 10.0 mi Calm Calm - N/A   Overcast
3:53 AM 53.1 °F 51.1 °F 93% 29.64 in 7.0 mi NNW 3.5 mph - 0.02 in Rain Light Rain
4:53 AM 53.1 °F 50.0 °F 89% 29.62 in 8.0 mi NNW 3.5 mph - 0.04 in Rain Light Rain
5:53 AM 55.0 °F 51.1 °F 86% 29.59 in 10.0 mi Variable 5.8 mph - 0.03 in Rain Light Rain
6:53 AM 53.1 °F 51.1 °F 93% 29.57 in 5.0 mi Calm Calm - 0.05 in Rain Light Rain
7:53 AM 54.0 °F 52.0 °F 93% 29.57 in 10.0 mi Calm Calm - 0.02 in Rain Light Rain
8:50 AM 53.6 °F 51.8 °F 94% 29.57 in 2.5 mi Calm Calm - 0.03 in Rain Light Rain
8:53 AM 53.1 °F 52.0 °F 96% 29.57 in 4.0 mi Calm Calm - 0.04 in Rain Light Rain
9:11 AM 53.1 °F 52.0 °F 96% 29.56 in 5.0 mi Calm Calm - 0.01 in Rain Light Rain
9:29 AM 53.1 °F 52.0 °F 96% 29.57 in 1.8 mi Calm Calm - 0.01 in Rain Light Rain
9:36 AM 54.0 °F 53.1 °F 97% 29.57 in 3.0 mi Calm Calm - 0.02 in Rain Light Rain
9:53 AM 54.0 °F 52.0 °F 93% 29.57 in 6.0 mi Calm Calm - 0.03 in Rain Light Rain
10:10 AM 55.0 °F 53.1 °F 93% 29.57 in 6.0 mi Calm Calm - 0.00 in Rain Light Rain
10:33 AM 55.9 °F 54.0 °F 93% 29.58 in 7.0 mi Calm Calm - 0.01 in Rain Light Rain
10:53 AM 55.9 °F 54.0 °F 93% 29.58 in 8.0 mi SE 5.8 mph - 0.01 in   Overcast
10:56 AM 55.0 °F 53.1 °F 93% 29.58 in 1.2 mi SE 3.5 mph - N/A   Overcast
11:03 AM 55.0 °F 54.0 °F 96% 29.58 in 1.0 mi SSE 3.5 mph - N/A   Overcast
11:06 AM 55.0 °F 54.0 °F 96% 29.58 in 2.5 mi SSE 3.5 mph - N/A   Overcast
11:23 AM 55.9 °F 55.0 °F 97% 29.57 in 0.8 mi SSW 5.8 mph - N/A   Overcast
11:47 AM 55.4 °F 53.6 °F 94% 29.57 in 1.2 mi WSW 3.5 mph - 0.00 in Rain Light Rain
11:50 AM 55.4 °F 53.6 °F 94% 29.58 in 3.0 mi SW 3.5 mph - 0.00 in Rain Light Rain
11:53 AM 55.9 °F 54.0 °F 93% 29.57 in 5.0 mi WSW 4.6 mph - 0.00 in Rain Light Rain
12:05 PM 57.0 °F 55.0 °F 93% 29.57 in 10.0 mi Calm Calm - 0.00 in   Mostly Cloudy
12:53 PM 57.0 °F 55.0 °F 93% 29.57 in 2.5 mi Calm Calm - 0.06 in Rain Rain
1:03 PM 57.9 °F 55.9 °F 93% 29.57 in 5.0 mi East 4.6 mph - 0.01 in Rain Light Rain
1:27 PM 55.9 °F 54.0 °F 93% 29.58 in 5.0 mi SSE 4.6 mph - 0.02 in Rain Rain
1:36 PM 55.9 °F 54.0 °F 93% 29.59 in 3.0 mi SE 5.8 mph - 0.04 in Rain Light Rain
1:43 PM 55.9 °F 54.0 °F 93% 29.59 in 3.0 mi ESE 4.6 mph - 0.05 in Rain Light Rain
1:53 PM 55.9 °F 54.0 °F 93% 29.60 in 2.5 mi SE 8.1 mph - 0.06 in Rain Light Rain
2:00 PM 55.9 °F 54.0 °F 93% 29.59 in 1.2 mi ESE 6.9 mph - 0.03 in Rain Rain
2:20 PM 57.0 °F 55.0 °F 93% 29.60 in 3.0 mi Variable 3.5 mph - 0.05 in Rain Light Rain
2:37 PM 57.0 °F 55.0 °F 93% 29.60 in 2.5 mi SSW 12.7 mph - 0.07 in Rain Rain
2:44 PM 57.0 °F 55.0 °F 93% 29.60 in 2.5 mi SSW 12.7 mph - 0.08 in Rain Rain
2:53 PM 57.0 °F 55.0 °F 93% 29.60 in 3.0 mi South 12.7 mph 18.4 mph 0.09 in Rain Rain
3:01 PM 57.0 °F 55.0 °F 93% 29.60 in 2.5 mi South 13.8 mph 19.6 mph 0.01 in Rain Light Rain
3:17 PM 55.9 °F 55.0 °F 97% 29.60 in 3.0 mi South 8.1 mph - 0.04 in Rain Light Rain
3:29 PM 57.0 °F 55.0 °F 93% 29.60 in 3.0 mi South 6.9 mph 17.3 mph 0.05 in Rain Light Rain
3:53 PM 57.0 °F 54.0 °F 89% 29.61 in 10.0 mi SSE 11.5 mph 18.4 mph 0.06 in Rain Light Rain
4:17 PM 55.9 °F 54.0 °F 93% 29.61 in 4.0 mi South 6.9 mph 18.4 mph 0.00 in Rain Light Rain
4:25 PM 55.9 °F 54.0 °F 93% 29.62 in 3.0 mi South 8.1 mph - 0.02 in Rain Rain
4:32 PM 55.9 °F 54.0 °F 93% 29.62 in 2.5 mi South 16.1 mph - 0.03 in Rain Light Rain
4:49 PM 55.4 °F 53.6 °F 94% 29.63 in 4.0 mi South 8.1 mph - 0.05 in Rain Light Rain
4:53 PM 55.9 °F 54.0 °F 93% 29.63 in 5.0 mi South 9.2 mph - 0.05 in Rain Light Rain
5:53 PM 55.9 °F 53.1 °F 90% 29.64 in 5.0 mi South 11.5 mph - 0.04 in Rain Light Rain
6:53 PM 55.0 °F 53.1 °F 93% 29.65 in 7.0 mi South 8.1 mph - 0.02 in Rain Light Rain
7:53 PM 53.1 °F 51.1 °F 93% 29.64 in 5.0 mi SSE 6.9 mph - 0.00 in Rain Light Rain
8:53 PM 54.0 °F 52.0 °F 93% 29.65 in 10.0 mi Calm Calm - 0.01 in   Overcast
9:53 PM 53.1 °F 52.0 °F 96% 29.64 in 8.0 mi NW 3.5 mph - N/A   Overcast
10:41 PM 51.1 °F 50.0 °F 96% 29.63 in 1.8 mi Calm Calm - N/A   Overcast
10:46 PM 51.1 °F 50.0 °F 96% 29.63 in 0.8 mi Calm Calm - N/A   Overcast
10:53 PM 52.0 °F 50.0 °F 93% 29.63 in 1.8 mi Calm Calm - N/A   Overcast
10:57 PM 52.0 °F 50.0 °F 93% 29.63 in 3.0 mi Calm Calm - N/A   Overcast
11:28 PM 51.1 °F 50.0 °F 96% 29.62 in 1.5 mi Calm Calm - N/A   Overcast
11:32 PM 51.1 °F 48.9 °F 92% 29.62 in 0.8 mi Calm Calm - N/A   Overcast
11:44 PM 51.1 °F 50.0 °F 96% 29.62 in 1.2 mi Calm Calm - N/A   Overcast
11:48 PM 51.8 °F 50.0 °F 94% 29.62 in 3.0 mi Calm Calm - N/A   Overcast
11:53 PM 52.0 °F 50.0 °F 93% 29.62 in 6.0 mi NNW 3.5 mph - N/A   Overcast